Location: Niedergestelen
(46.3129°N, 7.7822°E)
Time: 16:21:12
(UTC+00:00)

USA 238 - Pass Details

Date: 01 December 2020
Orbit: 996 x 1216 km, 63.4° (Epoch: 22 January)

Event Time Altitude Azimuth Distance (km) Brightness Sun altitude
Rises 17:01:45 0° 181° (S) 3,709 6.8 -13.0°
Reaches altitude 10° 17:04:37 10° 170° (S) 2,777 6.0 -13.4°
Maximum altitude 17:10:07 30° 113° (ESE) 1,764 4.4 -14.3°
Enters shadow 17:13:13 21° 72° (ENE) 2,173 4.7 -14.9°
